NOAA 16 DEB, 41512

Orbit data source: Space-Track

NOAA 16 DEB, 41512 is space debris in SSO originally from a launch on Thu, 21 Sep 2000 UTC launched from the Air Force Western Test Range (AFWTR). Debris objects in space refer to the collection of defunct objects orbiting the Earth. Examples of debris include non-operational satellites, rocket bodies, and fragments generated from explosions, collisions, or faulty payload assembly.

Loading next visibility...
Identifier
41512, 2000-055ML
Orbit
SSO
Country
Flag of USUS
Related business
Manufacturer
Unknown
Mission
Spacecraft
Bus & Motor
Unknown
Mass
Unknown
Launch date (UTC)
2000-09-21 (26 years ago)
Launch vehicle
Unknown
Launch site
Air Force Western Test Range (AFWTR)
Object type
Payload
Rocket body
Debris
Shape & HBR
Unknown shape, 0.1 m
Radar Cross Section
Small (<0.1 m²)

Expand to show TLE details & history
Last TLE update: 21 hours ago

TLE from 21 hours ago
0 NOAA 16 DEB
1 41512U 00055ML  26126.04182153  .00007212  00000-0  16591-2 0  9990
2 41512  98.9621 334.1039 0029092 172.3285 187.8361 14.55470632528212
Epoch: 2026-05-06T01:00Z
TLE epoch observation values (Epoch: 2026-05-06T01:00:13.380Z)
Latitude
-0.00001°
Longitude
95.14015°
Altitude
731.219 km
Speed
7.479 km/s
True Right ascension
22h 16m 24s
True Declination
0° 00' 00"
Sunlit
Object was in daylight at epoch
Visualization orbit readout
Latitude
Unknown
Longitude
Unknown
Altitude
Unknown
Speed
Unknown
Apparent Right ascension
Unknown
Apparent Declination
Unknown
Sunlit
N/A
Visualization observer readout
Local Sidereal Time
05:42:23
Azimuth
Unknown
Elevation
Unknown
Doppler factor
Unknown
Orbital elements
Apogee altitude
725.567 km
Perigee altitude
684.354 km
Semi-major axis
7,083.098 km
Eccentricity
0.00291
Inclination
98.9621°
RAAN
334.1039°
Arg. of periapsis
172.3285°
True anomaly
187.79081°
Mean anomaly
187.8361°
Eccentric anomaly
187.81344°
Mean motion
3.6409 °/min
Orbital period
98.88 mins
BSTAR
0.0016591
Loading maneuver chart data...
Computing Atmospheric mass density...

Documentation

Showing up to 5 results
|